When you browse on this site, cookies collect data to enhance your experience and personalize the content and advertising you see.
Visit our Privacy Policy to learn more. By continuing to use the site, you agree to this use of cookies and data.
  • In Czech Republic
  • List of Countries
  • For 7 days
  • Water Temperature
  • Weather Map
  • Weather Widgets
  • user-avatar
    Login

    Hourly Weather Kamennyy Klyuch

    Today, 31 May, Sunday

    Time Temperature Precipitation Wind Pressure Humidity
    00:00 +16°C° 0 mm 2 mps 742 mmHg 78%
    01:00 +16°C° 0 mm 2 mps 741 mmHg 80%
    02:00 +15°C° 0 mm 2 mps 741 mmHg 82%
    03:00 +15°C° 0 mm 2 mps 741 mmHg 84%
    04:00 +14°C° 0 mm 3 mps 741 mmHg 85%
    05:00 +14°C° 0 mm 3 mps 740 mmHg 85%
    06:00 +14°C° 0 mm 3 mps 739 mmHg 85%
    07:00 +14°C° 0 mm 4 mps 739 mmHg 85%
    08:00 +15°C° 0 mm 4 mps 738 mmHg 82%
    09:00 +17°C° 0 mm 4 mps 738 mmHg 79%
    10:00 +17°C° 0 mm 5 mps 738 mmHg 75%
    11:00 +19°C° 0 mm 4 mps 738 mmHg 72%
    12:00 +21°C° 0 mm 4 mps 737 mmHg 69%
    13:00 +22°C° 0 mm 4 mps 737 mmHg 65%
    14:00 +22°C° 0.7 mm 3 mps 737 mmHg 68%
    15:00 +22°C° 0.7 mm 3 mps 737 mmHg 70%
    16:00 +23°C° 0.7 mm 2 mps 736 mmHg 72%
    17:00 +21°C° 1.1 mm 3 mps 736 mmHg 76%
    18:00 +20°C° 1.1 mm 3 mps 736 mmHg 80%
    19:00 +18°C° 1.1 mm 4 mps 736 mmHg 84%
    20:00 +17°C° 0.1 mm 3 mps 736 mmHg 87%
    21:00 +16°C° 0.1 mm 3 mps 737 mmHg 90%
    22:00 +15°C° 0.1 mm 2 mps 737 mmHg 93%
    23:00 +14°C° 0.1 mm 2 mps 737 mmHg 94%

    Tomorrow, 1 June, Monday

    Time Temperature Precipitation Wind Pressure Humidity
    00:00 +13°C° 0.1 mm 3 mps 737 mmHg 95%
    01:00 +12°C° 0.1 mm 3 mps 736 mmHg 96%
    02:00 +13°C° 0.1 mm 2 mps 737 mmHg 96%
    03:00 +13°C° 0.1 mm 2 mps 737 mmHg 96%
    04:00 +12°C° 0.1 mm 1 mps 737 mmHg 97%
    05:00 +13°C° 0.1 mm 2 mps 737 mmHg 95%
    06:00 +13°C° 0.1 mm 2 mps 737 mmHg 93%
    07:00 +14°C° 0.1 mm 2 mps 737 mmHg 91%
    08:00 +13°C° 0.1 mm 3 mps 738 mmHg 90%
    09:00 +13°C° 0.1 mm 3 mps 739 mmHg 89%
    10:00 +14°C° 0.1 mm 3 mps 739 mmHg 88%
    11:00 +14°C° 0.3 mm 3 mps 739 mmHg 88%
    12:00 +14°C° 0.3 mm 4 mps 740 mmHg 88%
    13:00 +14°C° 0.3 mm 4 mps 740 mmHg 88%
    14:00 +14°C° 0.2 mm 4 mps 740 mmHg 86%
    15:00 +14°C° 0.2 mm 3 mps 741 mmHg 84%
    16:00 +14°C° 0.2 mm 3 mps 741 mmHg 83%
    17:00 +14°C° 0 mm 3 mps 741 mmHg 83%
    18:00 +13°C° 0 mm 3 mps 742 mmHg 84%
    19:00 +13°C° 0 mm 3 mps 742 mmHg 85%
    20:00 +13°C° 0 mm 2 mps 742 mmHg 87%
    21:00 +12°C° 0 mm 2 mps 743 mmHg 88%
    22:00 +12°C° 0 mm 2 mps 743 mmHg 90%
    23:00 +10°C° 0 mm 2 mps 743 mmHg 91%

    Day after tomorrow, 2 June, Tuesday

    Time Temperature Precipitation Wind Pressure Humidity
    00:00 +10°C° 0 mm 2 mps 744 mmHg 91%
    01:00 +9°C° 0 mm 2 mps 744 mmHg 91%
    02:00 +9°C° 0 mm 2 mps 744 mmHg 90%
    03:00 +9°C° 0 mm 2 mps 744 mmHg 89%
    04:00 +8°C° 0 mm 2 mps 745 mmHg 87%
    05:00 +8°C° 0 mm 2 mps 745 mmHg 85%
    06:00 +9°C° 0 mm 2 mps 745 mmHg 83%
    07:00 +9°C° 0 mm 2 mps 745 mmHg 81%
    08:00 +10°C° 0 mm 2 mps 746 mmHg 78%
    09:00 +12°C° 0 mm 2 mps 746 mmHg 75%
    10:00 +12°C° 0 mm 2 mps 746 mmHg 71%
    11:00 +13°C° 0 mm 2 mps 746 mmHg 69%
    12:00 +14°C° 0 mm 2 mps 746 mmHg 66%
    13:00 +14°C° 0 mm 2 mps 746 mmHg 64%
    14:00 +14°C° 0 mm 2 mps 747 mmHg 64%
    15:00 +15°C° 0 mm 2 mps 747 mmHg 64%
    16:00 +14°C° 0 mm 3 mps 747 mmHg 64%
    17:00 +13°C° 0 mm 3 mps 746 mmHg 67%
    18:00 +13°C° 0 mm 3 mps 746 mmHg 70%
    19:00 +13°C° 0 mm 3 mps 746 mmHg 73%
    20:00 +12°C° 0 mm 3 mps 746 mmHg 76%
    21:00 +12°C° 0 mm 2 mps 746 mmHg 78%
    22:00 +10°C° 0 mm 2 mps 746 mmHg 81%
    23:00 +10°C° 0 mm 2 mps 746 mmHg 80%

    3 June, Wednesday

    Time Temperature Precipitation Wind Pressure Humidity
    00:00 +10°C° 0 mm 2 mps 746 mmHg 79%
    01:00 +10°C° 0 mm 2 mps 746 mmHg 77%
    02:00 +10°C° 0 mm 2 mps 746 mmHg 78%
    03:00 +10°C° 0 mm 2 mps 746 mmHg 79%
    04:00 +10°C° 0 mm 2 mps 746 mmHg 80%
    05:00 +10°C° 0 mm 3 mps 746 mmHg 81%
    06:00 +10°C° 0 mm 3 mps 746 mmHg 82%
    07:00 +10°C° 0 mm 4 mps 746 mmHg 84%
    08:00 +11°C° 0 mm 4 mps 746 mmHg 79%
    09:00 +13°C° 0 mm 4 mps 746 mmHg 75%
    10:00 +14°C° 0 mm 4 mps 746 mmHg 70%
    11:00 +15°C° 0 mm 4 mps 746 mmHg 66%
    12:00 +17°C° 0 mm 4 mps 746 mmHg 61%
    13:00 +18°C° 0 mm 4 mps 746 mmHg 56%
    14:00 +19°C° 0 mm 4 mps 746 mmHg 56%
    15:00 +19°C° 0 mm 4 mps 746 mmHg 56%
    16:00 +19°C° 0 mm 4 mps 745 mmHg 56%
    17:00 +19°C° 0 mm 3 mps 745 mmHg 60%
    18:00 +18°C° 0 mm 3 mps 745 mmHg 65%
    19:00 +18°C° 0 mm 3 mps 745 mmHg 69%
    20:00 +16°C° 0 mm 3 mps 745 mmHg 73%
    21:00 +14°C° 0 mm 2 mps 746 mmHg 77%
    22:00 +13°C° 0 mm 2 mps 746 mmHg 81%
    23:00 +11°C° 0 mm 3 mps 746 mmHg 80%

    4 June, Thursday

    Time Temperature Precipitation Wind Pressure Humidity
    00:00 +11°C° 0 mm 3 mps 746 mmHg 79%
    01:00 +10°C° 0 mm 4 mps 746 mmHg 78%
    02:00 +10°C° 0 mm 4 mps 746 mmHg 76%
    03:00 +9°C° 0 mm 3 mps 746 mmHg 73%
    04:00 +9°C° 0 mm 3 mps 746 mmHg 71%
    05:00 +8°C° 0 mm 4 mps 746 mmHg 70%
    06:00 +10°C° 0 mm 4 mps 746 mmHg 70%
    07:00 +11°C° 0 mm 4 mps 746 mmHg 69%
    08:00 +13°C° 0 mm 4 mps 746 mmHg 67%
    09:00 +14°C° 0 mm 5 mps 746 mmHg 65%
    10:00 +16°C° 0 mm 5 mps 745 mmHg 62%
    11:00 +17°C° 0 mm 5 mps 745 mmHg 59%
    12:00 +19°C° 0 mm 5 mps 745 mmHg 56%
    13:00 +20°C° 0 mm 5 mps 745 mmHg 54%
    14:00 +20°C° 0 mm 5 mps 745 mmHg 54%
    15:00 +21°C° 0 mm 5 mps 745 mmHg 55%
    16:00 +21°C° 0 mm 5 mps 744 mmHg 56%
    17:00 +20°C° 0 mm 5 mps 744 mmHg 61%
    18:00 +20°C° 0 mm 5 mps 744 mmHg 65%
    19:00 +19°C° 0 mm 4 mps 743 mmHg 70%
    20:00 +18°C° 0 mm 4 mps 743 mmHg 72%
    21:00 +15°C° 0 mm 5 mps 743 mmHg 74%
    22:00 +14°C° 0 mm 5 mps 743 mmHg 77%
    23:00 +13°C° 0 mm 5 mps 743 mmHg 77%

    5 June, Friday

    Time Temperature Precipitation Wind Pressure Humidity
    00:00 +13°C° 0 mm 5 mps 743 mmHg 78%
    01:00 +13°C° 0 mm 5 mps 743 mmHg 79%
    02:00 +12°C° 0 mm 5 mps 742 mmHg 83%
    03:00 +12°C° 0 mm 5 mps 742 mmHg 87%
    04:00 +12°C° 0 mm 5 mps 742 mmHg 91%
    05:00 +13°C° 0 mm 6 mps 742 mmHg 89%
    06:00 +14°C° 0 mm 6 mps 742 mmHg 86%
    07:00 +15°C° 0 mm 7 mps 742 mmHg 83%
    08:00 +16°C° 0 mm 7 mps 742 mmHg 81%
    09:00 +16°C° 0 mm 7 mps 741 mmHg 79%
    10:00 +17°C° 0 mm 7 mps 741 mmHg 77%
    11:00 +18°C° 0 mm 8 mps 741 mmHg 77%
    12:00 +18°C° 0 mm 8 mps 741 mmHg 77%
    13:00 +18°C° 0 mm 8 mps 741 mmHg 76%
    14:00 +18°C° 0.1 mm 8 mps 741 mmHg 78%
    15:00 +17°C° 0.1 mm 7 mps 741 mmHg 79%
    16:00 +17°C° 0.1 mm 7 mps 741 mmHg 80%
    17:00 +17°C° 0.5 mm 7 mps 741 mmHg 82%
    18:00 +16°C° 0.5 mm 6 mps 741 mmHg 84%
    19:00 +16°C° 0.5 mm 6 mps 741 mmHg 86%
    20:00 +16°C° 0.9 mm 6 mps 741 mmHg 88%
    21:00 +15°C° 0.9 mm 6 mps 741 mmHg 91%
    22:00 +15°C° 0.9 mm 7 mps 741 mmHg 93%
    23:00 +14°C° 1 mm 7 mps 741 mmHg 93%
    Show more